Regional Weather Roundup
Issued by NWS

Home | Current Version | Previous Version | Graphics & Text | Print | Product List | Glossary On
Versions: 1 2 3 4 5 6 7 8 9 10 11 12 13 14 15 16 17 18 19 20 21 22 23 24 25 26 27
000
ASUS45 KCYS 160610
RWRWY

WYOMING REGIONAL WEATHER ROUNDUP
NATIONAL WEATHER SERVICE CHEYENNE WY
1100 PM MST SUN JAN 15 2017

NOTE:  "FAIR" INDICATES FEW OR NO CLOUDS BELOW 12,000 FEET
WITH NO SIGNIFICANT WEATHER AND/OR OBSTRUCTIONS TO VISIBILITY.

WYZ001-160700-
YELLOWSTONE NATIONAL PARK

CITY           SKY/WX    TMP DP  RH WIND       PRES   REMARKS
LK YELLOWSTONE   N/A    -12 -16  82 CALM      30.14R
6HR MIN TEMP: -12; 6HR MAX TEMP:  -3;

W YELLOWSTONE  NOT AVBL

$$
WYZ002>013-054>058-071-098>099-160700-
NORTHERN WYOMING

CITY           SKY/WX    TMP DP  RH WIND       PRES   REMARKS
JACKSON        FAIR     -11 -15  84 N7        30.17R WCI -26
CODY           FAIR      10   3  73 SW3       30.08R
GREYBULL       FAIR     -13 -18  78 N5        30.16R WCI -25
6HR MIN TEMP: -13; 6HR MAX TEMP:  -3;

WORLAND        FAIR      -6 -10  83 CALM      30.14R
6HR MIN TEMP: -12; 6HR MAX TEMP:   2;

SHERIDAN       FAIR      11   0  61 SE9       30.07R WCI  -2
6HR MIN TEMP:   4; 6HR MAX TEMP:  21;

BUFFALO        FAIR      26   1  34 W10       30.05R WCI  16
6HR MIN TEMP:  20; 6HR MAX TEMP:  33;

GILLETTE       FAIR      15   8  73 CALM      30.04S
6HR MIN TEMP:   7; 6HR MAX TEMP:  29;

HULETT         FAIR      14   1  57 S9        30.05R WCI   2
NEWCASTLE      FAIR      25  12  58 NW7       30.04S WCI  17

$$
WYZ014>020-022>026-101>103-160700-
CENTRAL WYOMING

CITY           SKY/WX    TMP DP  RH WIND       PRES   REMARKS
BIG PINEY      FAIR     -16 -19  87 NW6       30.07R WCI -31
6HR MIN TEMP: -17; 6HR MAX TEMP:  -8;

PINEDALE       FAIR     -17 -22  76 W3        30.07R
DUBOIS         NOT AVBL
LANDER         FAIR       8   3  80 W6        30.07R WCI  -2
6HR MIN TEMP:   4; 6HR MAX TEMP:  10;

RIVERTON       FAIR      -5  -9  83 NW3       30.09R
6HR MIN TEMP:  -5; 6HR MAX TEMP:   6;

CASPER         FAIR      19  16  88 SW10      30.05R WCI   7
6HR MIN TEMP:  18; 6HR MAX TEMP:  23;

DOUGLAS        CLOUDY    26  20  77 NW9       30.04R WCI  17
6HR MIN TEMP:  20; 6HR MAX TEMP:  31;


$$
WYZ021-027>030-104>119-160700-
SOUTHERN WYOMING

CITY           SKY/WX    TMP DP  RH WIND       PRES   REMARKS
EVANSTON       FAIR       6   0  76 CALM      30.08S
6HR MIN TEMP:   2; 6HR MAX TEMP:  13;

ROCK SPRINGS   FAIR       4   0  83 W7        30.07S WCI  -8
6HR MIN TEMP:   3; 6HR MAX TEMP:   7;

RAWLINS        FAIR       9   4  80 CALM      30.04F
6HR MIN TEMP:  10; 6HR MAX TEMP:  17;

LARAMIE        CLOUDY    18  16  92 N7        29.97R WCI   9
6HR MIN TEMP:  18; 6HR MAX TEMP:  22;

CHEYENNE       CLOUDY    32  22  66 N9        29.96S WCI  24
6HR MIN TEMP:  31; 6HR MAX TEMP:  35;

TORRINGTON     CLOUDY    32  26  78 NW5       29.99F WCI  27
6HR MIN TEMP:  31; 6HR MAX TEMP:  37;


$$




USA.gov is the U.S. government's official web portal to all federal, state and local government web resources and services.